Regional Weather Roundup
Issued by NWS

Home | Current Version | Previous Version | Graphics & Text | Print | Product List | Glossary On
Versions: 1 2 3 4 5 6 7 8 9 10 11 12 13 14 15 16 17 18 19 20 21 22 23 24 25 26 27
000
ASUS45 KBOU 221507
RWRCO

WEATHER ROUNDUP FOR COLORADO
NATIONAL WEATHER SERVICE DENVER/BOULDER CO
900 AM MDT WED MAR 22 2017

NOTE: "FAIR" INDICATES FEW OR NO CLOUDS BELOW 12000 FEET WITH NO
SIGNIFICANT WEATHER AND/OR OBSTRUCTIONS TO VISIBILITY.

COZ001>005-013-030-031-221600-
...NORTHWEST COLORADO...

CITY           SKY/WX    TMP DP  RH WIND       PRES   REMARKS
CRAIG          PTSUNNY   47  34  60 W8        30.00R
HAYDEN         FAIR      48  28  46 NE5       30.02R
MEEKER         FAIR      50  32  50 CALM      30.02R
MOUNT WERNER   NOT AVBL
STEAMBOAT SPGS CLOUDY    41  32  69 CALM      30.04S
WALDEN         NOT AVBL
$$

COZ006>008-011-221600-
...WEST CENTRAL VALLEYS...

CITY           SKY/WX    TMP DP  RH WIND       PRES   REMARKS
GRAND JUNCTION FAIR      59  31  34 SW5       29.97R
MONTROSE       FAIR      57  23  26 VRB3      30.05R
EAGLE          MOSUNNY   43  30  61 CALM      30.11R
RIFLE          FAIR      48  36  63 CALM      30.02R
DELTA          FAIR      57  30  36 SW5       30.03R
NUCLA          FAIR      52  27  37 E7        30.10S
$$

COZ017>023-064>068-221600-
...SOUTHWEST COLORADO...

CITY           SKY/WX    TMP DP  RH WIND       PRES   REMARKS
DURANGO        FAIR      42  29  59 CALM      30.17R
CORTEZ         FAIR      45  33  63 CALM      30.09R
PAGOSA SPRINGS FAIR      46  31  57 CALM      30.22S
TELLURIDE      FAIR      49  18  29 S6        30.22S
WOLF CREEK PAS CLOUDY    32  19  59 S21G30    30.40S WCI  20
$$

COZ009-010-012-014-032>034-037-058>063-221600-
...CENTRAL COLORADO...

CITY           SKY/WX    TMP DP  RH WIND       PRES   REMARKS
ASPEN          FAIR      51  25  36 CALM      30.09F
BUENA VISTA    FAIR      40  29  64 CALM      30.17S
COPPER MTN     FAIR      37  19  48 S10G16    30.30R
BERTHOUD PASS  FAIR      32  21  64 W22G29    30.29S WCI  19
COTTONWOOD PAS CLOUDY    46  21  36 SW5       30.23R
GUNNISON       FAIR      36  30  79 CALM      30.20R
KREMMLING      FAIR      43  32  65 W3        30.14R
LEADVILLE      FAIR      38  21  50 NW3       30.21R
MONARCH PASS   CLOUDY    34  19  55 S21G26    30.43R WCI  22
SALIDA         FAIR      44  32  61 N7        30.23F
SUNLIGHT       NOT AVBL
WILKERSON PASS FAIR      36  23  60 SW16G24   30.28S
$$

COZ069>075-221600-
...SAN LUIS VALLEY/SANGRE DE CRISTO MOUNTAINS...

CITY           SKY/WX    TMP DP  RH WIND       PRES   REMARKS
ALAMOSA        FAIR      43  26  51 CALM      30.18S
LA VETA PASS   NOT AVBL
SAGUACHE       FAIR      46  28  49 CALM      30.21S
$$

COZ035-036-038>040-221600-
...NORTHERN COLORADO FRONT RANGE...

CITY           SKY/WX    TMP DP  RH WIND       PRES   REMARKS
DENVER INTL AP PTSUNNY   41  32  70 W8        30.03S
DMNS CITY PARK   N/A     43  33  67 NE9       30.04S
AURORA         PTSUNNY   42  34  74 NW5       30.03F
FRONT RANGE AP PTSUNNY   41  36  81 CALM      30.04S
ERIE MUNI ARPT FAIR      38  32  77 N3        30.04S
BOULDER MUN AP FAIR      37  32  81 CALM      30.03S
CENTENNIAL     PTSUNNY   44  33  65 CALM      30.03S
BROOMFIELD     PTSUNNY   39  32  75 CALM      30.04F
FORT COLLINS   FAIR      38  29  70 N8        30.04F
LONGMONT       FAIR      42  32  67 CALM      30.05F
$$

COZ041-046-047-076>085-087-088-221600-
...PIKES PEAK/PALMER DIVIDE AND SOUTHERN FOOTHILLS...

CITY           SKY/WX    TMP DP  RH WIND       PRES   REMARKS
COLO. SPRINGS  PTSUNNY   37  30  75 CALM      30.13F
A. F. ACADEMY  MOSUNNY   37  30  75 VRB3      30.11R
SCHRIEVER AFB  FAIR      36  31  83 CALM      30.13F
ELLICOTT       CLOUDY   N/A N/A N/A CALM      30.11F
FALCON         PTSUNNY   34  31  90 CALM      30.13S
FORT CARSON    FAIR      37  30  75 CALM      30.11F
LIMON          CLOUDY    39  31  72 S16       30.12F
MONUMENT HILL  FAIR      41  32  70 SW14      30.10R
TRINIDAD       FAIR      45  34  65 VRB3      30.12F
$$

COZ042>045-048>051-090-091-221600-
...NORTHEAST COLORADO...

CITY           SKY/WX    TMP DP  RH WIND       PRES   REMARKS
GREELEY ARPT   FAIR      40  33  76 E5        30.04F
AKRON          FAIR      42  28  57 S24G31    30.07F
BURLINGTON     CLOUDY    41  33  73 S21G29    30.15F
WRAY           NOT AVBL
STERLING       FAIR      41  32  70 S12       30.09S
HOLYOKE        PTSUNNY   43  32  65 SE23      30.13F
FORT MORGAN    FAIR      43  29  56 S14       30.06F
$$

COZ086-089-092>099-221600-
...SOUTHEAST COLORADO...

CITY           SKY/WX    TMP DP  RH WIND       PRES   REMARKS
PUEBLO         FAIR      43  29  57 CALM      30.13F
LA JUNTA       FAIR      43  32  65 SW9       30.13F
LAMAR          CLOUDY    47  34  60 S17G23    30.15F
SPRINGFIELD      N/A     42  35  76 S14       30.18S
$$




USA.gov is the U.S. government's official web portal to all federal, state and local government web resources and services.